Regional Weather Roundup
Issued by NWS Portland, ME

Current Version | Previous Version | Text Only | Print | Product List | Glossary Off
Versions: 1 2 3 4 5 6 7 8 9 10 11 12 13 14 15 16 17 18 19 20 21 22 23 24 25 26 27 28 29 30 31 32 33 34 35 36 37 38 39 40 41 42 43 44 45 46 47 48 49 50
000 ASUS41 KGYX 230110 RWRGYX WEATHER ROUNDUP FOR MAINE AND NEW HAMPSHIRE NATIONAL WEATHER SERVICE GRAY ME 800 PM EST MON JAN 22 2018 MEZ002-005-006-010-012-015-018-020-021-024-026-027-029-230200- MAINE CITY SKY/WX TMP DP RH WIND PRES REMARKS PORTLAND LGT SNOW 22 21 96 NE13 30.34F FOG WCI 10 SANFORD MIX PCPN 23 21 92 NE12 30.30F FOG WCI 12 BAR HARBOR CLOUDY 21 7 54 NE6 30.41S WISCASSET CLOUDY 21 17 84 VRB5 30.37F ROCKLAND CLOUDY 22 15 75 NE10 30.36F WCI 11 FRYEBURG LGT SNOW 23 23 100 NE3 30.31F VSB 1 LEWISTONAUBURN LGT SNOW 19 18 93 N8 30.35F FOG AUGUSTA CLOUDY 19 14 81 NE9 30.35F WATERVILLE LGT SNOW 18 15 88 N5 30.31F FOG BANGOR FLURRIES 21 10 62 E8 30.37F GREENVILLE N/A 15 11 83 SE6 30.24F MILLINOCKET CLOUDY 21 9 59 CALM 30.38F HOULTON FAIR 10 1 67 CALM 30.37F PRESQUE ISLE FAIR 5 0 79 CALM 30.40F FRENCHVILLE FAIR 6 -5 60 N5 30.34F CARIBOU FAIR 9 -5 53 NE3 30.38S $$ NHZ002-005-008-009-011-012-014-230200- NEW HAMPSHIRE CITY SKY/WX TMP DP RH WIND PRES REMARKS PORTSMOUTH FRZ DRZL 29 28 94 NE12 30.26F FOG WCI 20 ROCHESTER CLOUDY 24 23 96 NE8 30.28F FOG NASHUA FRZ RAIN 29 28 96 N6 30.26F FOG MANCHESTER FRZ DRZL 28 26 92 NE9 30.25F FOG CONCORD CLOUDY 26 23 88 CALM 30.28F LACONIA LGT SNOW 24 22 91 E13 30.29F FOG WCI 12 PLYMOUTH LGT SNOW 26 25 94 SE6 30.27F BERLIN LGT SNOW 26 21 81 S10G17 30.20F WCI 16 WHITEFIELD FRZ RAIN 32 25 75 S14G20 30.15F JAFFREY FRZ RAIN 30 29 96 VRB3 30.20S FOG KEENE FLURRIES 31 28 89 NE5 30.23S LEBANON MIX PCPN 30 28 92 CALM 30.22S FOG MT WASHINGTON SNOWSHWR 16 16 100 S37G44 N/A VSB 0 WCI -6 $$ VTZ005-007-008-230200- VERMONT CITY SKY/WX TMP DP RH WIND PRES REMARKS ST JOHNSBURY N/A 30 30 100 MISG 30.16F MONTPELIER MIX PCPN 28 27 96 S10 30.18F FOG WCI 19 BURLINGTON FRZ RAIN 26 23 88 SW5 30.10F $$ MAZ007-012-024-CTZ003-RIZ002-NYZ038-NYZ072-230200- SOUTHERN NEW ENGLAND AND NY CITY SKY/WX TMP DP RH WIND PRES REMARKS BOSTON CLOUDY 39 38 96 E7 30.25F FOG WORCESTER FRZ RAIN 31 29 92 NE9 30.18F VSB 1/2 NANTUCKET LGT RAIN 41 41 100 E15 30.23F PROVIDENCE DRIZZLE 38 38 100 NE6 30.22F FOG HARTFORD CLOUDY 36 36 100 N6 30.21S FOG ALBANY LGT RAIN 34 31 88 CALM 30.10F FOG NEW YORK CITY CLOUDY 39 35 86 NE14 30.14F $$ ANZ081-ANZ082-ANZ150-NHZ014-MEZ023>029-230200- COASTAL MARINE OBSERVATIONS STATION/POSITION TIME TEMP WIND PRES WAVE AIR SEA DIR/SP/G HT/PER (UTC) (F) (DEG/KT/KT) (MB) (FT/S) MOUNT DESERT ROC 0100 30 60/ 21/ 25 1027.8F MATINICUS ROCK 0000 31 70/ 24/ 26 1027.1F ISLE OF SHOALS 0000 35 40/ 23/ 26 1024.8R JEFFREYS LEDGE 0036 42 N/A 8/ 7 GEORGES BANK BUO 2350 40 55 1028.9 4/ 8 $$ .............KEY.............. WCI - WIND CHILL TC - TEMPERATURE IN CELSIUS VSB - VISIBILITY IN MILES HX - HEAT INDEX FAIR- INDICATES FEW OR NO CLOUDS BELOW 12,000 FT, WITH NO SIGNIFICANT WEATHER AND/OR OBSTRUCTIONS TO VISIBILITY.

USA.gov is the U.S. government's official web portal to all federal, state and local government web resources and services.